Time,TemperatureF,DewpointF,PressureIn,WindDirection,WindDirectionDegrees,WindSpeedMPH,WindSpeedGustMPH,Humidity,HourlyPrecipIn,Conditions,Clouds,dailyrainin,SoftwareType,DateUTC
2013-07-24 00:00:00,79.4,74.2,29.72,NW,311,0.0,0.0,84,0.00,,---,0.00,VWS V14.01,2013-07-24 04:00:00,
2013-07-24 00:01:00,79.6,74.7,29.72,NW,311,0.0,0.0,85,0.00,,---,0.00,VWS V14.01,2013-07-24 04:01:00,
2013-07-24 00:06:00,79.4,74.2,29.72,NW,311,0.0,0.0,84,0.00,,---,0.00,VWS V14.01,2013-07-24 04:06:00,
2013-07-24 00:10:00,79.2,74.3,29.72,NW,308,0.0,0.0,85,0.00,,---,0.00,VWS V14.01,2013-07-24 04:10:00,
2013-07-24 00:11:00,79.2,74.3,29.72,NW,308,0.0,0.0,85,0.00,,---,0.00,VWS V14.01,2013-07-24 04:11:00,
2013-07-24 00:16:00,79.2,74.3,29.72,NW,308,0.0,0.0,85,0.00,,---,0.00,VWS V14.01,2013-07-24 04:16:00,
2013-07-24 00:20:00,79.0,74.1,29.72,NW,308,0.0,0.0,85,0.00,,---,0.00,VWS V14.01,2013-07-24 04:20:00,
2013-07-24 00:21:00,79.2,74.3,29.72,NW,308,0.0,0.0,85,0.00,,---,0.00,VWS V14.01,2013-07-24 04:21:00,
2013-07-24 00:26:00,79.0,74.1,29.72,NW,308,0.0,0.0,85,0.00,,---,0.00,VWS V14.01,2013-07-24 04:26:00,
2013-07-24 00:30:00,78.8,73.9,29.72,NW,308,0.0,0.0,85,0.00,,---,0.00,VWS V14.01,2013-07-24 04:30:00,
2013-07-24 00:31:00,79.0,74.1,29.72,NW,308,0.0,0.0,85,0.00,,---,0.00,VWS V14.01,2013-07-24 04:31:00,
2013-07-24 00:36:00,78.8,73.9,29.72,NW,308,0.0,0.0,85,0.00,,---,0.00,VWS V14.01,2013-07-24 04:36:00,
2013-07-24 00:40:00,78.8,74.3,29.72,NW,308,0.0,0.0,86,0.00,,---,0.00,VWS V14.01,2013-07-24 04:40:00,
2013-07-24 00:41:00,78.8,74.3,29.72,NW,308,0.0,0.0,86,0.00,,---,0.00,VWS V14.01,2013-07-24 04:41:00,
2013-07-24 00:46:00,78.8,74.3,29.72,NW,308,0.0,0.0,86,0.00,,---,0.00,VWS V14.01,2013-07-24 04:46:00,
2013-07-24 00:50:00,78.6,74.1,29.73,NW,308,0.0,0.0,86,0.00,,---,0.00,VWS V14.01,2013-07-24 04:50:00,
2013-07-24 00:51:00,78.6,74.1,29.73,NW,308,0.0,0.0,86,0.00,,---,0.00,VWS V14.01,2013-07-24 04:51:00,
2013-07-24 00:56:00,78.6,74.1,29.73,NW,308,0.0,0.0,86,0.00,,---,0.00,VWS V14.01,2013-07-24 04:56:00,
2013-07-24 01:00:00,78.5,74.3,29.72,NW,308,0.0,0.0,87,0.00,,---,0.00,VWS V14.01,2013-07-24 05:00:00,
2013-07-24 01:01:00,78.5,74.0,29.73,NW,308,0.0,0.0,86,0.00,,---,0.00,VWS V14.01,2013-07-24 05:01:00,
2013-07-24 01:06:00,78.5,74.3,29.72,NW,308,0.0,0.0,87,0.00,,---,0.00,VWS V14.01,2013-07-24 05:06:00,
2013-07-24 01:10:00,78.5,74.3,29.72,NW,308,0.0,0.0,87,0.00,,---,0.00,VWS V14.01,2013-07-24 05:10:00,
2013-07-24 01:11:00,78.5,74.3,29.72,NW,308,0.0,0.0,87,0.00,,---,0.00,VWS V14.01,2013-07-24 05:11:00,
2013-07-24 01:16:00,78.5,74.3,29.72,NW,308,0.0,0.0,87,0.00,,---,0.00,VWS V14.01,2013-07-24 05:16:00,
2013-07-24 01:20:00,78.5,74.3,29.72,NW,308,0.0,0.0,87,0.00,,---,0.00,VWS V14.01,2013-07-24 05:20:00,
2013-07-24 01:21:00,78.5,74.3,29.72,NW,308,0.0,0.0,87,0.00,,---,0.00,VWS V14.01,2013-07-24 05:21:00,
2013-07-24 01:26:00,78.5,74.3,29.72,NW,308,0.0,0.0,87,0.00,,---,0.00,VWS V14.01,2013-07-24 05:26:00,
2013-07-24 01:30:00,78.1,73.6,29.72,NW,308,0.0,0.0,86,0.00,,---,0.00,VWS V14.01,2013-07-24 05:30:00,
2013-07-24 01:31:00,78.1,73.9,29.72,NW,308,0.0,0.0,87,0.00,,---,0.00,VWS V14.01,2013-07-24 05:31:00,
2013-07-24 01:36:00,78.1,73.9,29.72,NW,308,0.0,0.0,87,0.00,,---,0.00,VWS V14.01,2013-07-24 05:36:00,
2013-07-24 01:40:00,77.9,74.1,29.72,NW,308,0.0,0.0,88,0.00,,---,0.00,VWS V14.01,2013-07-24 05:40:00,
2013-07-24 01:41:00,77.9,74.1,29.72,NW,308,0.0,0.0,88,0.00,,---,0.00,VWS V14.01,2013-07-24 05:41:00,
2013-07-24 01:46:00,77.9,73.7,29.72,NW,308,0.0,0.0,87,0.00,,---,0.00,VWS V14.01,2013-07-24 05:46:00,
2013-07-24 01:50:00,77.9,74.1,29.71,NW,308,0.0,0.0,88,0.00,,---,0.00,VWS V14.01,2013-07-24 05:50:00,
2013-07-24 01:51:00,77.9,74.1,29.71,NW,308,0.0,0.0,88,0.00,,---,0.00,VWS V14.01,2013-07-24 05:51:00,
2013-07-24 01:56:00,77.7,73.9,29.71,NW,308,0.0,0.0,88,0.00,,---,0.00,VWS V14.01,2013-07-24 05:56:00,
2013-07-24 02:00:00,77.7,73.9,29.71,NW,308,0.0,0.0,88,0.00,,---,0.00,VWS V14.01,2013-07-24 06:00:00,
2013-07-24 02:01:00,77.7,73.9,29.71,NW,308,0.0,0.0,88,0.00,,---,0.00,VWS V14.01,2013-07-24 06:01:00,
2013-07-24 02:06:00,77.6,74.1,29.71,NW,308,0.0,0.0,89,0.00,,---,0.00,VWS V14.01,2013-07-24 06:06:00,
2013-07-24 02:10:00,77.6,73.8,29.71,NW,308,0.0,0.0,88,0.00,,---,0.00,VWS V14.01,2013-07-24 06:10:00,
2013-07-24 02:11:00,77.6,73.8,29.71,NW,308,0.0,0.0,88,0.00,,---,0.00,VWS V14.01,2013-07-24 06:11:00,
2013-07-24 02:16:00,77.4,73.9,29.71,NW,308,0.0,0.0,89,0.00,,---,0.00,VWS V14.01,2013-07-24 06:16:00,
2013-07-24 02:20:00,77.4,73.9,29.71,NW,308,0.0,0.0,89,0.00,,---,0.00,VWS V14.01,2013-07-24 06:20:00,
2013-07-24 02:21:00,77.4,74.2,29.71,NW,308,0.0,0.0,90,0.00,,---,0.00,VWS V14.01,2013-07-24 06:21:00,
2013-07-24 02:26:00,77.4,73.6,29.71,NW,308,0.0,0.0,88,0.00,,---,0.00,VWS V14.01,2013-07-24 06:26:00,
2013-07-24 02:30:00,77.2,74.0,29.70,NW,308,0.0,0.0,90,0.00,,---,0.00,VWS V14.01,2013-07-24 06:30:00,
2013-07-24 02:31:00,77.2,73.7,29.71,NW,308,0.0,0.0,89,0.00,,---,0.00,VWS V14.01,2013-07-24 06:31:00,
2013-07-24 02:36:00,77.2,74.0,29.70,NW,308,0.0,0.0,90,0.00,,---,0.00,VWS V14.01,2013-07-24 06:36:00,
2013-07-24 02:40:00,77.0,73.8,29.70,NW,308,0.0,0.0,90,0.00,,---,0.00,VWS V14.01,2013-07-24 06:40:00,
2013-07-24 02:41:00,77.0,73.8,29.70,NW,308,0.0,0.0,90,0.00,,---,0.00,VWS V14.01,2013-07-24 06:41:00,
2013-07-24 02:46:00,77.0,73.8,29.70,NW,308,0.0,0.0,90,0.00,,---,0.00,VWS V14.01,2013-07-24 06:46:00,
2013-07-24 02:50:00,77.0,73.8,29.70,NW,308,0.0,0.0,90,0.00,,---,0.00,VWS V14.01,2013-07-24 06:50:00,
2013-07-24 02:51:00,77.0,73.5,29.70,NW,308,0.0,0.0,89,0.00,,---,0.00,VWS V14.01,2013-07-24 06:51:00,
2013-07-24 02:56:00,76.8,73.7,29.70,NW,308,0.0,0.0,90,0.00,,---,0.00,VWS V14.01,2013-07-24 06:56:00,
2013-07-24 03:00:00,76.8,73.7,29.70,NW,308,0.0,0.0,90,0.00,,---,0.00,VWS V14.01,2013-07-24 07:00:00,
2013-07-24 03:01:00,76.8,73.7,29.70,NW,308,0.0,0.0,90,0.00,,---,0.00,VWS V14.01,2013-07-24 07:01:00,
2013-07-24 03:06:00,76.8,73.7,29.70,NW,308,0.0,0.0,90,0.00,,---,0.00,VWS V14.01,2013-07-24 07:06:00,
2013-07-24 03:10:00,76.7,73.6,29.70,NW,308,0.0,0.0,90,0.00,,---,0.00,VWS V14.01,2013-07-24 07:10:00,
2013-07-24 03:11:00,76.7,73.6,29.70,NW,308,0.0,0.0,90,0.00,,---,0.00,VWS V14.01,2013-07-24 07:11:00,
2013-07-24 03:16:00,76.7,73.6,29.70,NW,308,0.0,0.0,90,0.00,,---,0.00,VWS V14.01,2013-07-24 07:16:00,
2013-07-24 03:20:00,76.5,73.3,29.69,NW,308,0.0,0.0,90,0.00,,---,0.00,VWS V14.01,2013-07-24 07:20:00,
2013-07-24 03:22:00,76.7,73.6,29.69,NW,308,0.0,0.0,90,0.00,,---,0.00,VWS V14.01,2013-07-24 07:22:00,
2013-07-24 03:27:00,76.5,73.7,29.69,NW,308,0.0,0.0,91,0.00,,---,0.00,VWS V14.01,2013-07-24 07:27:00,
2013-07-24 03:30:00,76.5,73.7,29.69,NW,308,0.0,0.0,91,0.00,,---,0.00,VWS V14.01,2013-07-24 07:30:00,
2013-07-24 03:32:00,76.5,73.3,29.69,NW,308,0.0,0.0,90,0.00,,---,0.00,VWS V14.01,2013-07-24 07:32:00,
2013-07-24 03:37:00,76.5,73.7,29.69,NW,308,0.0,0.0,91,0.00,,---,0.00,VWS V14.01,2013-07-24 07:37:00,
2013-07-24 03:40:00,76.5,73.7,29.69,NW,308,0.0,0.0,91,0.00,,---,0.00,VWS V14.01,2013-07-24 07:40:00,
2013-07-24 03:42:00,76.5,73.7,29.69,NW,308,0.0,0.0,91,0.00,,---,0.00,VWS V14.01,2013-07-24 07:42:00,
2013-07-24 03:47:00,76.3,73.5,29.69,NW,308,0.0,0.0,91,0.00,,---,0.00,VWS V14.01,2013-07-24 07:47:00,
2013-07-24 03:50:00,76.3,73.5,29.69,NW,308,0.0,0.0,91,0.00,,---,0.00,VWS V14.01,2013-07-24 07:50:00,
2013-07-24 03:52:00,76.3,73.5,29.69,NW,308,0.0,0.0,91,0.00,,---,0.00,VWS V14.01,2013-07-24 07:52:00,
2013-07-24 03:57:00,76.3,73.5,29.69,NW,308,0.0,0.0,91,0.00,,---,0.00,VWS V14.01,2013-07-24 07:57:00,
2013-07-24 04:00:00,76.1,73.3,29.69,NW,308,0.0,0.0,91,0.00,,---,0.00,VWS V14.01,2013-07-24 08:00:00,
2013-07-24 04:02:00,76.1,73.6,29.69,NW,308,0.0,0.0,92,0.00,,---,0.00,VWS V14.01,2013-07-24 08:02:00,
2013-07-24 04:07:00,76.1,73.3,29.69,NW,308,0.0,0.0,91,0.00,,---,0.00,VWS V14.01,2013-07-24 08:07:00,
2013-07-24 04:10:00,76.1,73.6,29.69,NW,308,0.0,0.0,92,0.00,,---,0.00,VWS V14.01,2013-07-24 08:10:00,
2013-07-24 04:12:00,76.1,73.6,29.69,NW,308,0.0,0.0,92,0.00,,---,0.00,VWS V14.01,2013-07-24 08:12:00,
2013-07-24 04:17:00,76.0,73.5,29.69,NW,308,0.0,0.0,92,0.00,,---,0.00,VWS V14.01,2013-07-24 08:17:00,
2013-07-24 04:20:00,75.8,73.0,29.68,NW,308,0.0,0.0,91,0.00,,---,0.00,VWS V14.01,2013-07-24 08:20:00,
2013-07-24 04:22:00,76.0,73.2,29.68,NW,308,0.0,0.0,91,0.00,,---,0.00,VWS V14.01,2013-07-24 08:22:00,
2013-07-24 04:27:00,75.8,72.7,29.68,NW,308,0.0,0.0,90,0.00,,---,0.00,VWS V14.01,2013-07-24 08:27:00,
2013-07-24 04:30:00,75.8,73.3,29.68,NW,308,0.0,0.0,92,0.00,,---,0.00,VWS V14.01,2013-07-24 08:30:00,
2013-07-24 04:32:00,75.8,73.3,29.68,NW,308,0.0,0.0,92,0.00,,---,0.00,VWS V14.01,2013-07-24 08:32:00,
2013-07-24 04:37:00,75.8,73.0,29.68,NW,308,0.0,0.0,91,0.00,,---,0.00,VWS V14.01,2013-07-24 08:37:00,
2013-07-24 04:40:00,75.6,72.8,29.68,NW,308,0.0,0.0,91,0.00,,---,0.00,VWS V14.01,2013-07-24 08:40:00,
2013-07-24 04:42:00,75.6,73.1,29.68,NW,308,0.0,0.0,92,0.00,,---,0.00,VWS V14.01,2013-07-24 08:42:00,
2013-07-24 04:47:00,75.6,72.8,29.68,NW,308,0.0,0.0,91,0.00,,---,0.00,VWS V14.01,2013-07-24 08:47:00,
2013-07-24 04:50:00,75.4,72.6,29.68,NW,308,0.0,0.0,91,0.00,,---,0.00,VWS V14.01,2013-07-24 08:50:00,
2013-07-24 04:52:00,75.6,73.1,29.68,NW,308,0.0,0.0,92,0.00,,---,0.00,VWS V14.01,2013-07-24 08:52:00,
2013-07-24 04:57:00,75.4,72.9,29.68,NW,308,0.0,0.0,92,0.00,,---,0.00,VWS V14.01,2013-07-24 08:57:00,
2013-07-24 05:00:00,75.4,72.9,29.68,NW,308,0.0,0.0,92,0.00,,---,0.00,VWS V14.01,2013-07-24 09:00:00,
2013-07-24 05:02:00,75.4,72.9,29.68,NW,308,0.0,0.0,92,0.00,,---,0.00,VWS V14.01,2013-07-24 09:02:00,
2013-07-24 05:07:00,75.4,72.9,29.68,NW,308,0.0,0.0,92,0.00,,---,0.00,VWS V14.01,2013-07-24 09:07:00,
2013-07-24 05:10:00,75.3,72.5,29.68,NW,308,0.0,0.0,91,0.00,,---,0.00,VWS V14.01,2013-07-24 09:10:00,
2013-07-24 05:12:00,75.3,72.5,29.68,NW,308,0.0,0.0,91,0.00,,---,0.00,VWS V14.01,2013-07-24 09:12:00,
2013-07-24 05:17:00,75.3,72.5,29.68,NW,308,0.0,0.0,91,0.00,,---,0.00,VWS V14.01,2013-07-24 09:17:00,
2013-07-24 05:20:00,75.3,72.8,29.68,NW,308,0.0,0.0,92,0.00,,---,0.00,VWS V14.01,2013-07-24 09:20:00,
2013-07-24 05:22:00,75.3,72.8,29.68,NW,308,0.0,0.0,92,0.00,,---,0.00,VWS V14.01,2013-07-24 09:22:00,
2013-07-24 05:27:00,75.3,72.8,29.68,NW,308,0.0,0.0,92,0.00,,---,0.00,VWS V14.01,2013-07-24 09:27:00,
2013-07-24 05:30:00,75.3,73.1,29.68,NW,308,0.0,0.0,93,0.00,,---,0.00,VWS V14.01,2013-07-24 09:30:00,
2013-07-24 05:32:00,75.3,73.5,29.68,NW,308,0.0,0.0,94,0.00,,---,0.00,VWS V14.01,2013-07-24 09:32:00,
2013-07-24 05:37:00,75.1,72.6,29.68,NW,308,0.0,0.0,92,0.00,,---,0.00,VWS V14.01,2013-07-24 09:37:00,
2013-07-24 05:40:00,75.1,72.9,29.68,NW,308,0.0,0.0,93,0.00,,---,0.00,VWS V14.01,2013-07-24 09:40:00,
2013-07-24 05:42:00,75.1,73.3,29.68,NW,308,0.0,0.0,94,0.00,,---,0.00,VWS V14.01,2013-07-24 09:42:00,
2013-07-24 05:47:00,75.1,73.3,29.68,NW,308,0.0,0.0,94,0.00,,---,0.00,VWS V14.01,2013-07-24 09:47:00,
2013-07-24 05:50:00,75.1,73.6,29.68,NW,308,0.0,0.0,95,0.00,,---,0.00,VWS V14.01,2013-07-24 09:50:00,
2013-07-24 05:52:00,75.1,73.3,29.68,NW,308,0.0,0.0,94,0.00,,---,0.00,VWS V14.01,2013-07-24 09:52:00,
2013-07-24 05:57:00,75.1,73.6,29.68,NW,308,0.0,0.0,95,0.00,,---,0.00,VWS V14.01,2013-07-24 09:57:00,
2013-07-24 06:00:00,74.9,73.4,29.69,NW,308,0.0,0.0,95,0.00,,---,0.00,VWS V14.01,2013-07-24 10:00:00,
2013-07-24 06:02:00,74.9,73.4,29.68,NW,308,0.0,0.0,95,0.00,,---,0.00,VWS V14.01,2013-07-24 10:02:00,
2013-07-24 06:07:00,74.9,73.4,29.69,NW,308,0.0,0.0,95,0.00,,---,0.00,VWS V14.01,2013-07-24 10:07:00,
2013-07-24 06:10:00,74.7,73.2,29.69,NW,308,0.0,0.0,95,0.00,,---,0.00,VWS V14.01,2013-07-24 10:10:00,
2013-07-24 06:12:00,74.7,73.2,29.69,NW,308,0.0,0.0,95,0.00,,---,0.00,VWS V14.01,2013-07-24 10:12:00,
2013-07-24 06:17:00,74.7,73.2,29.69,NW,308,0.0,0.0,95,0.00,,---,0.00,VWS V14.01,2013-07-24 10:17:00,
2013-07-24 06:20:00,74.6,73.1,29.70,NW,308,0.0,0.0,95,0.00,,---,0.00,VWS V14.01,2013-07-24 10:20:00,
2013-07-24 06:22:00,74.6,73.1,29.70,NW,308,0.0,0.0,95,0.00,,---,0.00,VWS V14.01,2013-07-24 10:22:00,
2013-07-24 06:27:00,74.6,73.1,29.70,NW,308,0.0,0.0,95,0.00,,---,0.00,VWS V14.01,2013-07-24 10:27:00,
2013-07-24 06:30:00,74.6,73.1,29.69,NW,308,0.0,0.0,95,0.00,,---,0.00,VWS V14.01,2013-07-24 10:30:00,
2013-07-24 06:32:00,74.6,73.1,29.70,NW,308,0.0,0.0,95,0.00,,---,0.00,VWS V14.01,2013-07-24 10:32:00,
2013-07-24 06:37:00,74.6,73.1,29.69,NW,308,0.0,0.0,95,0.00,,---,0.00,VWS V14.01,2013-07-24 10:37:00,
2013-07-24 06:40:00,74.6,72.8,29.69,NW,308,0.0,0.0,94,0.00,,---,0.00,VWS V14.01,2013-07-24 10:40:00,
2013-07-24 06:42:00,74.6,72.8,29.69,NW,308,0.0,0.0,94,0.00,,---,0.00,VWS V14.01,2013-07-24 10:42:00,
2013-07-24 06:47:00,74.6,72.8,29.69,NW,308,0.0,0.0,94,0.00,,---,0.00,VWS V14.01,2013-07-24 10:47:00,
2013-07-24 06:50:00,74.6,72.8,29.70,NW,308,0.0,0.0,94,0.00,,---,0.00,VWS V14.01,2013-07-24 10:50:00,
2013-07-24 06:52:00,74.6,72.8,29.70,NW,308,0.0,0.0,94,0.00,,---,0.00,VWS V14.01,2013-07-24 10:52:00,
2013-07-24 06:57:00,74.6,72.8,29.70,NW,308,0.0,0.0,94,0.00,,---,0.00,VWS V14.01,2013-07-24 10:57:00,
2013-07-24 07:00:00,74.6,72.8,29.71,NW,308,0.0,0.0,94,0.00,,---,0.00,VWS V14.01,2013-07-24 11:00:00,
2013-07-24 07:02:00,74.6,72.4,29.70,NW,308,0.0,0.0,93,0.00,,---,0.00,VWS V14.01,2013-07-24 11:02:00,
2013-07-24 07:07:00,74.6,73.1,29.71,NW,308,0.0,0.0,95,0.00,,---,0.00,VWS V14.01,2013-07-24 11:07:00,
2013-07-24 07:10:00,74.6,73.4,29.71,NW,308,0.0,0.0,96,0.00,,---,0.00,VWS V14.01,2013-07-24 11:10:00,
2013-07-24 07:12:00,74.6,73.4,29.71,NW,308,0.0,0.0,96,0.00,,---,0.00,VWS V14.01,2013-07-24 11:12:00,
2013-07-24 07:17:00,74.6,73.4,29.71,NW,308,0.0,0.0,96,0.00,,---,0.00,VWS V14.01,2013-07-24 11:17:00,
2013-07-24 07:20:00,74.6,73.7,29.72,NW,308,0.0,0.0,97,0.00,,---,0.00,VWS V14.01,2013-07-24 11:20:00,
2013-07-24 07:22:00,74.6,73.4,29.72,NW,308,0.0,0.0,96,0.00,,---,0.00,VWS V14.01,2013-07-24 11:22:00,
2013-07-24 07:27:00,74.6,73.7,29.72,NW,308,0.0,0.0,97,0.00,,---,0.00,VWS V14.01,2013-07-24 11:27:00,
2013-07-24 07:30:00,74.6,73.7,29.73,NW,308,0.0,0.0,97,0.00,,---,0.00,VWS V14.01,2013-07-24 11:30:00,
2013-07-24 07:32:00,74.6,73.4,29.72,NW,308,0.0,0.0,96,0.00,,---,0.00,VWS V14.01,2013-07-24 11:32:00,
2013-07-24 07:37:00,74.6,73.7,29.73,NW,308,0.0,0.0,97,0.00,,---,0.00,VWS V14.01,2013-07-24 11:37:00,
2013-07-24 07:40:00,74.7,74.1,29.73,NW,308,0.0,0.0,98,0.00,,---,0.00,VWS V14.01,2013-07-24 11:40:00,
2013-07-24 07:42:00,74.7,73.8,29.73,NW,308,0.0,0.0,97,0.00,,---,0.00,VWS V14.01,2013-07-24 11:42:00,
2013-07-24 07:47:00,74.7,74.1,29.73,NW,308,0.0,0.0,98,0.00,,---,0.00,VWS V14.01,2013-07-24 11:47:00,
2013-07-24 07:50:00,74.9,74.3,29.72,NW,306,0.0,0.0,98,0.00,,---,0.00,VWS V14.01,2013-07-24 11:50:00,
2013-07-24 07:52:00,74.9,74.3,29.72,NW,306,0.0,0.0,98,0.00,,---,0.00,VWS V14.01,2013-07-24 11:52:00,
2013-07-24 07:57:00,74.9,74.3,29.72,NW,306,0.0,0.0,98,0.00,,---,0.00,VWS V14.01,2013-07-24 11:57:00,
2013-07-24 08:00:00,75.1,74.2,29.73,NW,306,0.0,0.0,97,0.00,,---,0.00,VWS V14.01,2013-07-24 12:00:00,
2013-07-24 08:02:00,75.1,74.2,29.72,NW,306,0.0,0.0,97,0.00,,---,0.00,VWS V14.01,2013-07-24 12:02:00,
2013-07-24 08:07:00,75.3,74.4,29.73,SW,234,0.0,0.0,97,0.00,,---,0.00,VWS V14.01,2013-07-24 12:07:00,
2013-07-24 08:10:00,75.4,74.5,29.73,SW,234,0.0,0.0,97,0.00,,---,0.00,VWS V14.01,2013-07-24 12:10:00,
2013-07-24 08:12:00,75.4,74.5,29.73,SW,234,0.0,0.0,97,0.00,,---,0.00,VWS V14.01,2013-07-24 12:12:00,
2013-07-24 08:17:00,75.6,74.7,29.73,SW,234,0.0,0.0,97,0.00,,---,0.00,VWS V14.01,2013-07-24 12:17:00,
2013-07-24 08:20:00,75.8,74.9,29.73,West,280,0.0,5.0,97,0.00,,---,0.00,VWS V14.01,2013-07-24 12:20:00,
2013-07-24 08:22:00,75.8,74.9,29.73,West,278,0.0,5.0,97,0.00,,---,0.00,VWS V14.01,2013-07-24 12:22:00,
2013-07-24 08:27:00,76.0,75.1,29.73,West,280,0.0,0.0,97,0.00,,---,0.00,VWS V14.01,2013-07-24 12:27:00,
2013-07-24 08:30:00,76.1,75.2,29.73,West,278,0.0,0.0,97,0.00,,---,0.00,VWS V14.01,2013-07-24 12:30:00,
2013-07-24 08:32:00,76.1,75.2,29.73,West,278,0.0,0.0,97,0.00,,---,0.00,VWS V14.01,2013-07-24 12:32:00,
2013-07-24 08:37:00,76.3,75.1,29.73,West,278,0.0,0.0,96,0.00,,---,0.00,VWS V14.01,2013-07-24 12:37:00,
2013-07-24 08:40:00,76.7,75.2,29.73,West,278,0.0,1.0,95,0.00,,---,0.00,VWS V14.01,2013-07-24 12:40:00,
2013-07-24 08:42:00,76.5,75.3,29.73,West,278,0.0,0.0,96,0.00,,---,0.00,VWS V14.01,2013-07-24 12:42:00,
2013-07-24 08:47:00,76.8,75.3,29.73,West,280,0.0,0.0,95,0.00,,---,0.00,VWS V14.01,2013-07-24 12:47:00,
2013-07-24 08:50:00,77.2,75.3,29.73,West,278,0.0,0.0,94,0.00,,---,0.00,VWS V14.01,2013-07-24 12:50:00,
2013-07-24 08:52:00,77.0,75.5,29.73,West,278,0.0,0.0,95,0.00,,---,0.00,VWS V14.01,2013-07-24 12:52:00,
2013-07-24 08:57:00,77.2,75.3,29.73,West,278,0.0,0.0,94,0.00,,---,0.00,VWS V14.01,2013-07-24 12:57:00,
2013-07-24 09:00:00,77.6,75.1,29.73,North,357,0.0,0.0,92,0.00,,---,0.00,VWS V14.01,2013-07-24 13:00:00,
2013-07-24 09:02:00,77.6,75.4,29.73,North,359,0.0,0.0,93,0.00,,---,0.00,VWS V14.01,2013-07-24 13:02:00,
2013-07-24 09:07:00,77.7,75.2,29.73,SW,217,0.0,1.0,92,0.00,,---,0.00,VWS V14.01,2013-07-24 13:07:00,
2013-07-24 09:10:00,78.1,74.9,29.73,SW,236,0.0,1.0,90,0.00,,---,0.00,VWS V14.01,2013-07-24 13:10:00,
2013-07-24 09:12:00,78.1,75.6,29.73,SW,236,0.0,1.0,92,0.00,,---,0.00,VWS V14.01,2013-07-24 13:12:00,
2013-07-24 09:17:00,78.3,75.5,29.73,SW,236,0.0,0.0,91,0.00,,---,0.00,VWS V14.01,2013-07-24 13:17:00,
2013-07-24 09:20:00,79.0,75.8,29.72,SW,236,0.0,0.0,90,0.00,,---,0.00,VWS V14.01,2013-07-24 13:20:00,
2013-07-24 09:22:00,78.8,75.6,29.72,SW,236,0.0,0.0,90,0.00,,---,0.00,VWS V14.01,2013-07-24 13:22:00,
2013-07-24 09:27:00,79.2,75.7,29.72,SW,236,0.0,0.0,89,0.00,,---,0.00,VWS V14.01,2013-07-24 13:27:00,
2013-07-24 09:30:00,79.6,76.1,29.72,SW,236,0.0,0.0,89,0.00,,---,0.00,VWS V14.01,2013-07-24 13:30:00,
2013-07-24 09:32:00,79.6,75.7,29.72,SW,236,0.0,0.0,88,0.00,,---,0.00,VWS V14.01,2013-07-24 13:32:00,
2013-07-24 09:37:00,79.8,76.6,29.72,SW,236,0.0,0.0,90,0.00,,---,0.00,VWS V14.01,2013-07-24 13:37:00,
2013-07-24 09:40:00,80.1,76.6,29.72,SW,236,0.0,0.0,89,0.00,,---,0.00,VWS V14.01,2013-07-24 13:40:00,
2013-07-24 09:42:00,80.1,76.2,29.72,SW,236,0.0,0.0,88,0.00,,---,0.00,VWS V14.01,2013-07-24 13:42:00,
2013-07-24 09:47:00,80.5,76.6,29.72,SW,236,0.0,0.0,88,0.00,,---,0.00,VWS V14.01,2013-07-24 13:47:00,
2013-07-24 09:50:00,81.1,77.2,29.72,SW,236,0.0,0.0,88,0.00,,---,0.00,VWS V14.01,2013-07-24 13:50:00,
2013-07-24 09:52:00,81.1,77.2,29.72,SW,236,0.0,0.0,88,0.00,,---,0.00,VWS V14.01,2013-07-24 13:52:00,
2013-07-24 09:57:00,81.2,76.3,29.72,SW,236,0.0,0.0,85,0.00,,---,0.00,VWS V14.01,2013-07-24 13:57:00,
2013-07-24 10:00:00,81.8,77.2,29.72,SW,236,0.0,0.0,86,0.00,,---,0.00,VWS V14.01,2013-07-24 14:00:00,
2013-07-24 10:02:00,81.6,76.7,29.72,SW,236,0.0,0.0,85,0.00,,---,0.00,VWS V14.01,2013-07-24 14:02:00,
2013-07-24 10:07:00,82.2,76.9,29.72,SW,236,0.0,0.0,84,0.00,,---,0.00,VWS V14.01,2013-07-24 14:07:00,
2013-07-24 10:10:00,82.6,76.9,29.72,SW,236,0.0,0.0,83,0.00,,---,0.00,VWS V14.01,2013-07-24 14:10:00,
2013-07-24 10:12:00,82.4,76.4,29.72,SW,236,0.0,0.0,82,0.00,,---,0.00,VWS V14.01,2013-07-24 14:12:00,
2013-07-24 10:17:00,82.8,77.1,29.72,WNW,291,0.0,0.0,83,0.00,,---,0.00,VWS V14.01,2013-07-24 14:17:00,
2013-07-24 10:20:00,83.2,77.5,29.73,WNW,291,0.0,0.0,83,0.00,,---,0.00,VWS V14.01,2013-07-24 14:20:00,
2013-07-24 10:22:00,83.2,77.5,29.73,WNW,291,0.0,0.0,83,0.00,,---,0.00,VWS V14.01,2013-07-24 14:22:00,
2013-07-24 10:27:00,83.4,77.0,29.73,WNW,291,0.0,0.0,81,0.00,,---,0.00,VWS V14.01,2013-07-24 14:27:00,
2013-07-24 10:30:00,84.0,78.3,29.72,WNW,291,0.0,0.0,83,0.00,,---,0.00,VWS V14.01,2013-07-24 14:30:00,
2013-07-24 10:32:00,83.8,77.7,29.73,WNW,291,0.0,0.0,82,0.00,,---,0.00,VWS V14.01,2013-07-24 14:32:00,
2013-07-24 10:37:00,84.1,77.6,29.72,WNW,291,0.0,1.0,81,0.00,,---,0.00,VWS V14.01,2013-07-24 14:37:00,
2013-07-24 10:40:00,84.5,78.0,29.72,WNW,291,0.0,1.0,81,0.00,,---,0.00,VWS V14.01,2013-07-24 14:40:00,
2013-07-24 10:42:00,84.5,77.3,29.72,WNW,291,0.0,1.0,79,0.00,,---,0.00,VWS V14.01,2013-07-24 14:42:00,
2013-07-24 10:47:00,84.7,77.8,29.72,SE,138,0.0,1.0,80,0.00,,---,0.00,VWS V14.01,2013-07-24 14:47:00,
2013-07-24 10:50:00,85.1,77.5,29.72,WNW,298,0.0,3.0,78,0.00,,---,0.00,VWS V14.01,2013-07-24 14:50:00,
2013-07-24 10:52:00,84.9,77.3,29.72,WNW,298,0.0,3.0,78,0.00,,---,0.00,VWS V14.01,2013-07-24 14:52:00,
2013-07-24 10:57:00,85.3,77.7,29.72,WNW,291,3.0,3.0,78,0.00,,---,0.00,VWS V14.01,2013-07-24 14:57:00,
2013-07-24 11:00:00,85.5,77.9,29.72,WNW,291,0.0,3.0,78,0.00,,---,0.00,VWS V14.01,2013-07-24 15:00:00,
2013-07-24 11:02:00,85.5,77.5,29.72,WNW,291,0.0,3.0,77,0.00,,---,0.00,VWS V14.01,2013-07-24 15:02:00,
2013-07-24 11:07:00,85.7,77.7,29.72,WNW,291,0.0,0.0,77,0.00,,---,0.00,VWS V14.01,2013-07-24 15:07:00,
2013-07-24 11:10:00,85.9,78.2,29.72,WNW,291,0.0,0.0,78,0.00,,---,0.00,VWS V14.01,2013-07-24 15:10:00,
2013-07-24 11:12:00,85.9,78.2,29.72,WNW,291,0.0,0.0,78,0.00,,---,0.00,VWS V14.01,2013-07-24 15:12:00,
2013-07-24 11:17:00,85.9,77.5,29.72,WNW,291,0.0,0.0,76,0.00,,---,0.00,VWS V14.01,2013-07-24 15:17:00,
2013-07-24 11:20:00,85.7,77.7,29.72,WNW,291,0.0,1.0,77,0.00,,---,0.00,VWS V14.01,2013-07-24 15:20:00,
2013-07-24 11:22:00,85.7,77.3,29.72,WNW,291,0.0,0.0,76,0.00,,---,0.00,VWS V14.01,2013-07-24 15:22:00,
2013-07-24 11:27:00,85.7,77.3,29.72,WNW,291,0.0,0.0,76,0.00,,---,0.00,VWS V14.01,2013-07-24 15:27:00,
2013-07-24 11:30:00,85.9,77.1,29.72,NW,316,0.0,0.0,75,0.00,,---,0.00,VWS V14.01,2013-07-24 15:30:00,
2013-07-24 11:32:00,85.7,76.9,29.72,WNW,291,0.0,0.0,75,0.00,,---,0.00,VWS V14.01,2013-07-24 15:32:00,
2013-07-24 11:37:00,85.9,76.7,29.72,NW,316,0.0,0.0,74,0.00,,---,0.00,VWS V14.01,2013-07-24 15:37:00,
2013-07-24 11:40:00,85.9,75.8,29.72,NW,316,0.0,0.0,72,0.00,,---,0.00,VWS V14.01,2013-07-24 15:40:00,
2013-07-24 11:42:00,85.9,76.2,29.72,NW,316,0.0,0.0,73,0.00,,---,0.00,VWS V14.01,2013-07-24 15:42:00,
2013-07-24 11:47:00,86.1,75.2,29.72,NW,316,0.0,0.0,70,0.00,,---,0.00,VWS V14.01,2013-07-24 15:47:00,
2013-07-24 11:50:00,86.7,76.6,29.72,NW,316,0.0,0.0,72,0.00,,---,0.00,VWS V14.01,2013-07-24 15:50:00,
2013-07-24 11:52:00,86.5,76.4,29.72,NW,316,0.0,0.0,72,0.00,,---,0.00,VWS V14.01,2013-07-24 15:52:00,
2013-07-24 11:57:00,87.0,76.5,29.72,NW,316,0.0,0.0,71,0.00,,---,0.00,VWS V14.01,2013-07-24 15:57:00,
2013-07-24 12:00:00,87.4,76.8,29.72,NW,318,0.0,0.0,71,0.00,,---,0.00,VWS V14.01,2013-07-24 16:00:00,
2013-07-24 12:02:00,87.4,76.8,29.72,NW,318,0.0,0.0,71,0.00,,---,0.00,VWS V14.01,2013-07-24 16:02:00,
2013-07-24 12:07:00,87.2,77.1,29.72,NW,316,0.0,0.0,72,0.00,,---,0.00,VWS V14.01,2013-07-24 16:07:00,
2013-07-24 12:10:00,87.0,76.5,29.72,SW,227,0.0,0.0,71,0.00,,---,0.00,VWS V14.01,2013-07-24 16:10:00,
2013-07-24 12:12:00,87.0,76.5,29.72,SW,227,0.0,0.0,71,0.00,,---,0.00,VWS V14.01,2013-07-24 16:12:00,
2013-07-24 12:17:00,86.7,76.6,29.73,SW,227,0.0,0.0,72,0.00,,---,0.00,VWS V14.01,2013-07-24 16:17:00,
2013-07-24 12:20:00,86.7,75.8,29.73,WSW,258,0.0,0.0,70,0.00,,---,0.00,VWS V14.01,2013-07-24 16:20:00,
2013-07-24 12:22:00,86.7,75.8,29.73,WSW,258,0.0,0.0,70,0.00,,---,0.00,VWS V14.01,2013-07-24 16:22:00,
2013-07-24 12:27:00,86.7,77.0,29.73,WSW,258,0.0,0.0,73,0.00,,---,0.00,VWS V14.01,2013-07-24 16:27:00,
2013-07-24 12:30:00,86.7,77.8,29.72,WSW,258,0.0,0.0,75,0.00,,---,0.00,VWS V14.01,2013-07-24 16:30:00,
2013-07-24 12:32:00,86.7,77.8,29.72,WSW,258,0.0,0.0,75,0.00,,---,0.00,VWS V14.01,2013-07-24 16:32:00,
2013-07-24 12:37:00,86.7,77.4,29.72,WSW,258,0.0,0.0,74,0.00,,---,0.00,VWS V14.01,2013-07-24 16:37:00,
2013-07-24 12:40:00,86.7,77.4,29.72,WSW,258,0.0,0.0,74,0.00,,---,0.00,VWS V14.01,2013-07-24 16:40:00,
2013-07-24 12:42:00,86.7,77.0,29.72,WSW,258,0.0,0.0,73,0.00,,---,0.00,VWS V14.01,2013-07-24 16:42:00,
2013-07-24 12:47:00,87.0,78.1,29.72,WSW,258,0.0,0.0,75,0.00,,---,0.00,VWS V14.01,2013-07-24 16:47:00,
2013-07-24 12:50:00,87.0,78.1,29.72,WSW,258,0.0,0.0,75,0.00,,---,0.00,VWS V14.01,2013-07-24 16:50:00,
2013-07-24 12:52:00,87.0,78.1,29.72,WSW,258,0.0,0.0,75,0.00,,---,0.00,VWS V14.01,2013-07-24 16:52:00,
2013-07-24 12:57:00,87.0,76.0,29.72,ENE,76,0.0,0.0,70,0.00,,---,0.00,VWS V14.01,2013-07-24 16:57:00,
2013-07-24 13:00:00,87.0,76.9,29.72,North,359,0.0,0.0,72,0.00,,---,0.00,VWS V14.01,2013-07-24 17:00:00,
2013-07-24 13:02:00,87.0,76.9,29.72,North,357,0.0,0.0,72,0.00,,---,0.00,VWS V14.01,2013-07-24 17:02:00,
2013-07-24 13:07:00,87.0,76.9,29.72,North,357,0.0,0.0,72,0.00,,---,0.00,VWS V14.01,2013-07-24 17:07:00,
2013-07-24 13:10:00,87.2,77.1,29.72,North,356,0.0,0.0,72,0.00,,---,0.00,VWS V14.01,2013-07-24 17:10:00,
2013-07-24 13:12:00,87.2,77.5,29.72,North,356,0.0,0.0,73,0.00,,---,0.00,VWS V14.01,2013-07-24 17:12:00,
2013-07-24 13:17:00,87.2,77.5,29.72,WSW,250,0.0,0.0,73,0.00,,---,0.00,VWS V14.01,2013-07-24 17:17:00,
2013-07-24 13:20:00,87.0,76.9,29.72,WSW,250,0.0,0.0,72,0.00,,---,0.00,VWS V14.01,2013-07-24 17:20:00,
2013-07-24 13:22:00,87.0,76.5,29.72,WSW,250,0.0,0.0,71,0.00,,---,0.00,VWS V14.01,2013-07-24 17:22:00,
2013-07-24 13:27:00,87.0,77.3,29.72,WSW,250,0.0,0.0,73,0.00,,---,0.00,VWS V14.01,2013-07-24 17:27:00,
2013-07-24 13:30:00,87.0,76.0,29.71,WSW,250,0.0,1.0,70,0.00,,---,0.00,VWS V14.01,2013-07-24 17:30:00,
2013-07-24 13:32:00,87.0,75.6,29.71,WSW,250,0.0,1.0,69,0.00,,---,0.00,VWS V14.01,2013-07-24 17:32:00,
2013-07-24 13:37:00,87.0,76.5,29.71,WSW,250,0.0,0.0,71,0.00,,---,0.00,VWS V14.01,2013-07-24 17:37:00,
2013-07-24 13:40:00,87.0,76.9,29.71,WNW,289,0.0,2.0,72,0.00,,---,0.00,VWS V14.01,2013-07-24 17:40:00,
2013-07-24 13:42:00,87.2,77.9,29.71,WSW,250,0.0,0.0,74,0.00,,---,0.00,VWS V14.01,2013-07-24 17:42:00,
2013-07-24 13:47:00,87.0,76.0,29.71,West,278,0.0,0.0,70,0.00,,---,0.00,VWS V14.01,2013-07-24 17:47:00,
2013-07-24 13:50:00,87.0,76.5,29.71,WNW,288,0.0,0.0,71,0.00,,---,0.00,VWS V14.01,2013-07-24 17:50:00,
2013-07-24 13:52:00,87.0,76.0,29.71,WNW,288,0.0,0.0,70,0.00,,---,0.00,VWS V14.01,2013-07-24 17:52:00,
2013-07-24 13:57:00,87.0,76.9,29.71,ESE,117,0.0,1.0,72,0.00,,---,0.00,VWS V14.01,2013-07-24 17:57:00,
2013-07-24 14:00:00,87.2,76.7,29.70,East,88,0.0,1.0,71,0.00,,---,0.00,VWS V14.01,2013-07-24 18:00:00,
2013-07-24 14:02:00,87.2,76.7,29.70,East,88,0.0,1.0,71,0.00,,---,0.00,VWS V14.01,2013-07-24 18:02:00,
2013-07-24 14:07:00,87.2,76.2,29.70,East,88,0.0,1.0,70,0.00,,---,0.00,VWS V14.01,2013-07-24 18:07:00,
2013-07-24 14:10:00,87.2,76.2,29.70,East,88,0.0,1.0,70,0.00,,---,0.00,VWS V14.01,2013-07-24 18:10:00,
2013-07-24 14:12:00,87.2,76.7,29.70,East,88,0.0,1.0,71,0.00,,---,0.00,VWS V14.01,2013-07-24 18:12:00,
2013-07-24 14:17:00,87.2,76.7,29.70,North,0,0.0,0.0,71,0.00,,---,0.00,VWS V14.01,2013-07-24 18:17:00,
2013-07-24 14:20:00,87.0,76.0,29.70,ESE,107,0.0,3.0,70,0.00,,---,0.00,VWS V14.01,2013-07-24 18:20:00,
2013-07-24 14:22:00,87.0,76.5,29.70,ENE,65,1.0,1.0,71,0.00,,---,0.00,VWS V14.01,2013-07-24 18:22:00,
2013-07-24 14:27:00,87.0,77.3,29.70,ESE,107,0.0,0.0,73,0.00,,---,0.00,VWS V14.01,2013-07-24 18:27:00,
2013-07-24 14:30:00,87.0,76.5,29.70,NW,320,0.0,1.0,71,0.00,,---,0.00,VWS V14.01,2013-07-24 18:30:00,
2013-07-24 14:32:00,87.0,76.9,29.70,NW,320,0.0,1.0,72,0.00,,---,0.00,VWS V14.01,2013-07-24 18:32:00,
2013-07-24 14:37:00,87.0,76.9,29.70,NW,320,0.0,0.0,72,0.00,,---,0.00,VWS V14.01,2013-07-24 18:37:00,
2013-07-24 14:40:00,87.0,76.5,29.70,NW,322,0.0,1.0,71,0.00,,---,0.00,VWS V14.01,2013-07-24 18:40:00,
2013-07-24 14:42:00,87.0,76.5,29.70,NW,322,0.0,1.0,71,0.00,,---,0.00,VWS V14.01,2013-07-24 18:42:00,
2013-07-24 14:47:00,87.0,76.0,29.70,NW,322,0.0,0.0,70,0.00,,---,0.00,VWS V14.01,2013-07-24 18:47:00,
2013-07-24 14:50:00,87.2,77.1,29.70,NW,322,0.0,0.0,72,0.00,,---,0.00,VWS V14.01,2013-07-24 18:50:00,
2013-07-24 14:52:00,87.2,77.1,29.70,NW,322,0.0,0.0,72,0.00,,---,0.00,VWS V14.01,2013-07-24 18:52:00,
2013-07-24 14:57:00,87.2,76.7,29.70,NW,322,0.0,0.0,71,0.00,,---,0.00,VWS V14.01,2013-07-24 18:57:00,
2013-07-24 15:00:00,87.4,77.7,29.69,SSW,213,0.0,7.0,73,0.00,,---,0.00,VWS V14.01,2013-07-24 19:00:00,
2013-07-24 15:02:00,87.4,76.0,29.69,SSW,213,0.0,7.0,69,0.00,,---,0.00,VWS V14.01,2013-07-24 19:02:00,
2013-07-24 15:07:00,87.6,75.7,29.69,SSW,213,0.0,0.0,68,0.00,,---,0.00,VWS V14.01,2013-07-24 19:07:00,
2013-07-24 15:10:00,88.0,75.7,29.69,West,281,3.0,3.0,67,0.00,,---,0.00,VWS V14.01,2013-07-24 19:10:00,
2013-07-24 15:12:00,88.0,75.7,29.69,SSW,213,0.0,1.0,67,0.00,,---,0.00,VWS V14.01,2013-07-24 19:12:00,
2013-07-24 15:17:00,88.4,76.1,29.69,South,175,0.0,5.0,67,0.00,,---,0.00,VWS V14.01,2013-07-24 19:17:00,
2013-07-24 15:20:00,88.6,74.9,29.69,South,175,0.0,5.0,64,0.00,,---,0.00,VWS V14.01,2013-07-24 19:20:00,
2013-07-24 15:22:00,88.6,75.3,29.69,South,175,0.0,5.0,65,0.00,,---,0.00,VWS V14.01,2013-07-24 19:22:00,
2013-07-24 15:27:00,88.6,74.9,29.69,SW,222,0.0,1.0,64,0.00,,---,0.00,VWS V14.01,2013-07-24 19:27:00,
2013-07-24 15:30:00,88.6,73.9,29.69,SW,230,0.0,2.0,62,0.00,,---,0.00,VWS V14.01,2013-07-24 19:30:00,
2013-07-24 15:40:00,88.8,73.6,29.69,SSE,158,1.0,6.0,61,0.00,,---,0.00,VWS V14.01,2013-07-24 19:40:00,
2013-07-24 15:50:00,88.4,74.7,29.69,SSE,158,0.0,0.0,64,0.00,,---,0.00,VWS V14.01,2013-07-24 19:50:00,
2013-07-24 16:00:00,88.0,76.6,29.69,West,270,0.0,2.0,69,0.00,,---,0.00,VWS V14.01,2013-07-24 20:00:00,
2013-07-24 16:10:00,87.4,76.8,29.69,WSW,248,0.0,3.0,71,0.00,,---,0.00,VWS V14.01,2013-07-24 20:10:00,
2013-07-24 16:20:00,87.0,77.3,29.70,WSW,248,0.0,5.0,73,0.00,,---,0.00,VWS V14.01,2013-07-24 20:20:00,
2013-07-24 16:30:00,86.5,76.8,29.69,WSW,248,0.0,0.0,73,0.00,,---,0.00,VWS V14.01,2013-07-24 20:30:00,
2013-07-24 16:40:00,86.5,77.2,29.69,WSW,248,0.0,0.0,74,0.00,,---,0.00,VWS V14.01,2013-07-24 20:40:00,
2013-07-24 16:50:00,86.7,74.0,29.69,East,90,1.0,12.0,66,0.00,,---,0.00,VWS V14.01,2013-07-24 20:50:00,
2013-07-24 17:00:00,86.1,72.5,29.71,East,90,3.0,12.0,64,0.00,,---,0.00,VWS V14.01,2013-07-24 21:00:00,
2013-07-24 17:10:00,84.3,70.8,29.71,ENE,68,4.0,12.0,64,0.00,,---,0.00,VWS V14.01,2013-07-24 21:10:00,
2013-07-24 17:20:00,83.0,69.6,29.69,NE,45,2.0,8.0,64,0.00,,---,0.00,VWS V14.01,2013-07-24 21:20:00,
2013-07-24 17:30:00,82.2,70.2,29.68,NE,45,1.0,7.0,67,0.00,,---,0.00,VWS V14.01,2013-07-24 21:30:00,
2013-07-24 17:40:00,82.2,71.9,29.68,SSE,158,0.0,2.0,71,0.00,,---,0.00,VWS V14.01,2013-07-24 21:40:00,
2013-07-24 17:50:00,82.8,71.2,29.68,ESE,112,0.0,5.0,68,0.00,,---,0.00,VWS V14.01,2013-07-24 21:50:00,
2013-07-24 18:00:00,83.2,71.1,29.69,East,90,1.0,11.0,67,0.00,,---,0.00,VWS V14.01,2013-07-24 22:00:00,
2013-07-24 18:10:00,82.6,70.5,29.69,ESE,112,2.0,11.0,67,0.00,,---,0.00,VWS V14.01,2013-07-24 22:10:00,
2013-07-24 18:20:00,81.8,70.2,29.69,ESE,112,1.0,6.0,68,0.00,,---,0.00,VWS V14.01,2013-07-24 22:20:00,
2013-07-24 18:30:00,81.4,70.7,29.69,ESE,112,1.0,8.0,70,0.00,,---,0.00,VWS V14.01,2013-07-24 22:30:00,
2013-07-24 18:40:00,81.1,70.0,29.69,East,90,1.0,8.0,69,0.00,,---,0.00,VWS V14.01,2013-07-24 22:40:00,
2013-07-24 18:50:00,80.7,70.8,29.68,ESE,112,1.0,5.0,72,0.00,,---,0.00,VWS V14.01,2013-07-24 22:50:00,
2013-07-24 19:00:00,80.3,70.9,29.69,East,90,1.0,7.0,73,0.00,,---,0.00,VWS V14.01,2013-07-24 23:00:00,
2013-07-24 19:10:00,80.1,71.9,29.69,ESE,112,1.0,7.0,76,0.00,,---,0.00,VWS V14.01,2013-07-24 23:10:00,
2013-07-24 19:20:00,79.8,71.2,29.69,East,90,0.0,6.0,75,0.00,,---,0.00,VWS V14.01,2013-07-24 23:20:00,
2013-07-24 19:30:00,79.2,70.6,29.70,ENE,68,0.0,5.0,75,0.00,,---,0.00,VWS V14.01,2013-07-24 23:30:00,
2013-07-24 19:40:00,78.8,69.8,29.70,East,90,0.0,3.0,74,0.00,,---,0.00,VWS V14.01,2013-07-24 23:40:00,
2013-07-24 19:50:00,78.5,70.3,29.69,East,90,0.0,0.0,76,0.00,,---,0.00,VWS V14.01,2013-07-24 23:50:00,
2013-07-24 20:10:00,77.7,70.7,29.70,South,188,0.0,0.0,79,0.00,,---,0.00,VWS V14.01,2013-07-25 00:10:00,
2013-07-24 20:12:00,78.5,70.3,29.69,East,90,0.0,0.0,76,0.00,,---,0.00,VWS V14.01,2013-07-25 00:12:00,
2013-07-24 20:18:00,77.6,70.6,29.71,South,188,0.0,0.0,79,0.00,,---,0.00,VWS V14.01,2013-07-25 00:18:00,
2013-07-24 20:23:00,77.6,70.6,29.71,South,188,0.0,0.0,79,0.00,,---,0.00,VWS V14.01,2013-07-25 00:23:00,
2013-07-24 20:28:00,77.4,70.4,29.71,South,188,0.0,0.0,79,0.00,,---,0.00,VWS V14.01,2013-07-25 00:28:00,
2013-07-24 20:33:00,77.4,70.8,29.71,South,188,0.0,0.0,80,0.00,,---,0.00,VWS V14.01,2013-07-25 00:33:00,
2013-07-24 20:38:00,77.2,70.6,29.71,South,188,0.0,0.0,80,0.00,,---,0.00,VWS V14.01,2013-07-25 00:38:00,
2013-07-24 20:43:00,77.0,70.7,29.71,South,188,0.0,0.0,81,0.00,,---,0.00,VWS V14.01,2013-07-25 00:43:00,
2013-07-24 20:48:00,76.8,70.5,29.72,South,188,0.0,0.0,81,0.00,,---,0.00,VWS V14.01,2013-07-25 00:48:00,
2013-07-24 20:53:00,76.7,70.4,29.72,South,188,0.0,0.0,81,0.00,,---,0.00,VWS V14.01,2013-07-25 00:53:00,
2013-07-24 20:58:00,76.5,70.6,29.72,South,188,0.0,0.0,82,0.00,,---,0.00,VWS V14.01,2013-07-25 00:58:00,
2013-07-24 21:03:00,76.5,70.6,29.72,South,188,0.0,0.0,82,0.00,,---,0.00,VWS V14.01,2013-07-25 01:03:00,
2013-07-24 21:08:00,76.3,70.4,29.72,South,188,0.0,0.0,82,0.00,,---,0.00,VWS V14.01,2013-07-25 01:08:00,
2013-07-24 21:13:00,76.3,70.4,29.72,South,188,0.0,0.0,82,0.00,,---,0.00,VWS V14.01,2013-07-25 01:13:00,
2013-07-24 21:18:00,76.3,70.4,29.73,South,188,0.0,0.0,82,0.00,,---,0.00,VWS V14.01,2013-07-25 01:18:00,
2013-07-24 21:23:00,76.3,70.8,29.73,South,188,0.0,0.0,83,0.00,,---,0.00,VWS V14.01,2013-07-25 01:23:00,
2013-07-24 21:28:00,76.3,70.8,29.73,South,188,0.0,0.0,83,0.00,,---,0.00,VWS V14.01,2013-07-25 01:28:00,
2013-07-24 21:33:00,76.3,70.4,29.73,South,188,0.0,0.0,82,0.00,,---,0.00,VWS V14.01,2013-07-25 01:33:00,
2013-07-24 21:38:00,76.1,70.2,29.73,South,188,0.0,0.0,82,0.00,,---,0.00,VWS V14.01,2013-07-25 01:38:00,
2013-07-24 21:43:00,76.1,70.6,29.73,South,188,0.0,0.0,83,0.00,,---,0.00,VWS V14.01,2013-07-25 01:43:00,
2013-07-24 21:48:00,76.1,70.6,29.74,South,188,0.0,0.0,83,0.00,,---,0.00,VWS V14.01,2013-07-25 01:48:00,
2013-07-24 21:53:00,76.1,70.6,29.74,South,188,0.0,0.0,83,0.00,,---,0.00,VWS V14.01,2013-07-25 01:53:00,
2013-07-24 21:58:00,76.0,70.8,29.74,South,188,0.0,0.0,84,0.00,,---,0.00,VWS V14.01,2013-07-25 01:58:00,
2013-07-24 22:03:00,76.0,70.8,29.74,South,188,0.0,0.0,84,0.00,,---,0.00,VWS V14.01,2013-07-25 02:03:00,
2013-07-24 22:08:00,75.8,70.6,29.74,South,188,0.0,0.0,84,0.00,,---,0.00,VWS V14.01,2013-07-25 02:08:00,
2013-07-24 22:13:00,75.8,70.6,29.74,South,188,0.0,0.0,84,0.00,,---,0.00,VWS V14.01,2013-07-25 02:13:00,
2013-07-24 22:18:00,75.8,71.0,29.74,South,188,0.0,0.0,85,0.00,,---,0.00,VWS V14.01,2013-07-25 02:18:00,
2013-07-24 22:23:00,75.6,70.8,29.74,South,188,0.0,0.0,85,0.00,,---,0.00,VWS V14.01,2013-07-25 02:23:00,
2013-07-24 22:28:00,75.6,70.8,29.74,South,188,0.0,0.0,85,0.00,,---,0.00,VWS V14.01,2013-07-25 02:28:00,
2013-07-24 22:33:00,75.4,70.9,29.75,South,188,0.0,0.0,86,0.00,,---,0.00,VWS V14.01,2013-07-25 02:33:00,
2013-07-24 22:38:00,75.4,70.9,29.75,South,188,0.0,0.0,86,0.00,,---,0.00,VWS V14.01,2013-07-25 02:38:00,
2013-07-24 22:43:00,75.4,70.9,29.75,South,188,0.0,0.0,86,0.00,,---,0.00,VWS V14.01,2013-07-25 02:43:00,
2013-07-24 22:48:00,75.3,70.8,29.75,South,188,0.0,0.0,86,0.00,,---,0.00,VWS V14.01,2013-07-25 02:48:00,
2013-07-24 22:53:00,75.3,70.8,29.75,South,188,0.0,0.0,86,0.00,,---,0.00,VWS V14.01,2013-07-25 02:53:00,
2013-07-24 22:58:00,75.3,70.8,29.75,South,188,0.0,0.0,86,0.00,,---,0.00,VWS V14.01,2013-07-25 02:58:00,
2013-07-24 23:03:00,75.1,70.6,29.75,South,188,0.0,0.0,86,0.00,,---,0.00,VWS V14.01,2013-07-25 03:03:00,
2013-07-24 23:08:00,75.1,70.6,29.75,South,188,0.0,0.0,86,0.00,,---,0.00,VWS V14.01,2013-07-25 03:08:00,
2013-07-24 23:13:00,75.1,70.6,29.75,South,188,0.0,0.0,86,0.00,,---,0.00,VWS V14.01,2013-07-25 03:13:00,
2013-07-24 23:18:00,74.9,70.8,29.75,South,188,0.0,0.0,87,0.00,,---,0.00,VWS V14.01,2013-07-25 03:18:00,
2013-07-24 23:24:00,74.9,71.1,29.75,South,188,0.0,0.0,88,0.00,,---,0.00,VWS V14.01,2013-07-25 03:24:00,
2013-07-24 23:29:00,74.7,70.9,29.75,South,188,0.0,0.0,88,0.00,,---,0.00,VWS V14.01,2013-07-25 03:29:00,
2013-07-24 23:34:00,74.6,71.2,29.75,South,188,0.0,0.0,89,0.00,,---,0.00,VWS V14.01,2013-07-25 03:34:00,
2013-07-24 23:39:00,74.6,71.2,29.75,South,188,0.0,0.0,89,0.00,,---,0.00,VWS V14.01,2013-07-25 03:39:00,
2013-07-24 23:44:00,74.4,70.9,29.75,South,188,0.0,0.0,89,0.00,,---,0.00,VWS V14.01,2013-07-25 03:44:00,
2013-07-24 23:50:00,74.4,70.9,29.76,South,188,0.0,0.0,89,0.00,,---,0.00,VWS V14.01,2013-07-25 03:50:00,
2013-07-24 23:55:00,74.4,70.6,29.76,South,188,0.0,0.0,88,0.00,,---,0.00,VWS V14.01,2013-07-25 03:55:00,